GW0323 Weather Reports


time (UTC)temp
F
wind
direction
speed
knots
gust
knots
rain 1hr
in
rain 24hr
in
rain mn
in
humidity
%
barometer
mb
20260506161127 43 333 3.5 12.2 0.00 0.00 0.00 60 1015.6
20260506160612 43 340 4.3 14.8 0.00 0.00 0.00 55 1015.5
20260506160116 42 254 2.6 14.8 0.00 0.00 0.00 55 1015.6
20260506155641 41 242 6.1 12.2 0.00 0.00 0.00 56 1015.4
20260506155123 41 284 4.3 13.9 0.00 0.00 0.00 52 1015.5
20260506154646 42 26 4.3 11.3 0.00 0.00 0.00 52 1015.5
20260506154127 42 5 6.1 13.9 0.00 0.00 0.00 52 1015.3
20260506153629 43 350 7.0 11.3 0.00 0.00 0.00 56 1015.3
20260506153133 42 150 2.6 18.2 0.00 0.00 0.00 54 1015.4
20260506152614 41 336 11.3 18.2 0.00 0.00 0.00 54 1015.4
20260506152117 41 252 4.3 14.8 0.00 0.00 0.00 56 1015.3
20260506151622 41 292 6.1 13.9 0.00 0.00 0.00 54 1015.3
20260506151123 41 350 5.2 13.9 0.00 0.00 0.00 53 1015.4
20260506150624 41 321 1.7 15.6 0.00 0.00 0.00 55 1015.5
20260506150126 41 37 8.7 15.6 0.00 0.00 0.00 53 1015.5
20260506145629 41 10 6.1 17.4 0.00 0.00 0.00 53 1015.5
20260506145112 41 308 10.4 19.1 0.00 0.00 0.00 53 1015.5
20260506144635 41 252 6.1 19.1 0.00 0.00 0.00 56 1015.5
20260506144116 41 304 4.3 13.0 0.00 0.00 0.00 54 1015.4
20260506143619 41 337 4.3 13.0 0.00 0.00 0.00 54 1015.4
20260506143122 41 298 9.6 13.0 0.00 0.00 0.00 54 1015.4
20260506142627 41 309 5.2 13.0 0.00 0.00 0.00 55 1015.2
20260506142131 40 317 7.0 13.9 0.00 0.00 0.00 56 1015.2
20260506141612 40 282 5.2 13.9 0.00 0.00 0.00 55 1015.2
20260506141117 40 290 2.6 13.9 0.00 0.00 0.00 53 1015.1
20260506140619 40 284 8.7 13.9 0.00 0.00 0.00 57 1015.0
20260506140123 40 74 5.2 13.0 0.00 0.00 0.00 53 1015.0
20260506135627 40 350 4.3 11.3 0.00 0.00 0.00 55 1014.9
20260506135150 40 9 6.1 11.3 0.00 0.00 0.00 56 1014.9
20260506134630 40 294 7.8 12.2 0.00 0.00 0.00 57 1014.8
20260506134113 40 325 1.7 13.9 0.00 0.00 0.00 57 1014.8
20260506133616 39 350 7.0 13.9 0.00 0.00 0.00 56 1014.8
20260506133120 39 29 1.7 11.3 0.00 0.00 0.00 58 1014.8
20260506132621 39 270 2.6 10.4 0.00 0.00 0.00 60 1014.8
20260506132124 39 279 7.0 10.4 0.00 0.00 0.00 62 1014.9
20260506131646 39 56 3.5 8.7 0.00 0.00 0.00 63 1014.9
20260506131128 38 31 2.6 7.0 0.00 0.00 0.00 60 1014.9
20260506130613 38 252 0.0 5.2 0.00 0.00 0.00 63 1014.7
20260506130114 37 342 1.7 7.0 0.00 0.00 0.00 61 1014.7
20260506125616 37 342 3.5 9.6 0.00 0.00 0.00 63 1014.5
20260506125119 36 286 5.2 13.0 0.00 0.00 0.00 64 1014.5
20260506124621 36 271 6.1 13.0 0.00 0.00 0.00 64 1014.5
20260506124145 36 296 7.0 11.3 0.00 0.00 0.00 65 1014.6
20260506123629 36 284 7.8 11.3 0.00 0.00 0.00 64 1014.6
20260506123131 36 309 6.1 13.0 0.00 0.00 0.00 65 1014.5
20260506122614 36 266 7.8 13.0 0.00 0.00 0.00 65 1014.4
20260506122117 36 275 7.0 13.0 0.00 0.00 0.00 66 1014.2
20260506121621 35 261 4.3 11.3 0.00 0.00 0.00 65 1014.1
20260506121124 35 287 5.2 11.3 0.00 0.00 0.00 66 1014.0
20260506120646 35 334 6.1 11.3 0.00 0.00 0.00 66 1013.9
20260506120128 35 284 4.3 13.9 0.00 0.00 0.00 67 1013.8
20260506115630 35 263 4.3 13.9 0.00 0.00 0.00 67 1013.9
20260506115112 35 311 4.3 9.6 0.00 0.00 0.00 68 1014.0
20260506114615 35 284 4.3 9.6 0.00 0.00 0.00 68 1013.9
20260506114137 35 267 6.1 9.6 0.00 0.00 0.00 67 1014.0
20260506113619 35 295 3.5 11.3 0.00 0.00 0.00 68 1014.0
20260506113120 35 319 7.0 11.3 0.00 0.00 0.00 69 1013.9
20260506112624 34 5 4.3 8.7 0.00 0.00 0.00 70 1013.8
20260506112126 34 287 2.6 8.7 0.00 0.00 0.00 72 1013.7
20260506111627 34 343 1.7 5.2 0.00 0.00 0.00 72 1013.5
20260506111130 34 335 1.7 4.3 0.00 0.00 0.00 70 1013.4
20260506110633 34 325 1.7 4.3 0.00 0.00 0.00 72 1013.4
20260506110115 34 325 2.6 4.3 0.00 0.00 0.00 72 1013.3
20260506105617 34 340 2.6 3.5 0.00 0.00 0.00 72 1013.2
20260506105118 34 340 1.7 3.5 0.00 0.00 0.00 71 1013.2
20260506104622 35 340 1.7 3.5 0.00 0.00 0.00 70 1013.1
20260506104124 35 340 0.9 2.6 0.00 0.00 0.00 70 1013.1
20260506103628 35 340 1.7 4.3 0.00 0.00 0.00 70 1013.0
20260506103150 35 340 2.6 7.0 0.00 0.00 0.00 69 1013.1
20260506102631 35 320 4.3 7.0 0.00 0.00 0.00 70 1013.2
20260506102136 35 342 3.5 4.3 0.00 0.00 0.00 70 1013.2
20260506101616 35 341 2.6 5.2 0.00 0.00 0.00 70 1013.2
20260506101114 35 341 2.6 5.2 0.00 0.00 0.00 71 1013.3
20260506100616 35 340 3.5 5.2 0.00 0.00 0.00 70 1013.1
20260506100118 35 12 2.6 3.5 0.00 0.00 0.00 70 1013.1
20260506095620 35 9 1.7 4.3 0.00 0.00 0.00 69 1013.1
20260506095122 36 338 1.7 5.2 0.00 0.00 0.00 68 1013.0
20260506094624 36 350 3.5 5.2 0.00 0.00 0.00 68 1012.8
20260506094127 36 350 2.6 4.3 0.00 0.00 0.00 68 1012.7
20260506093630 36 350 2.6 4.3 0.00 0.00 0.00 68 1012.7
20260506093131 36 350 2.6 4.3 0.00 0.00 0.00 68 1012.6
20260506092612 36 342 3.5 4.3 0.00 0.00 0.00 67 1012.6
20260506092114 36 307 2.6 4.3 0.00 0.00 0.00 68 1012.7
20260506091617 37 323 3.5 4.3 0.00 0.00 0.00 66 1012.8
20260506091122 37 349 0.9 3.5 0.00 0.00 0.00 66 1012.7
20260506090625 36 350 2.6 3.5 0.00 0.00 0.00 67 1012.6
20260506090127 37 342 1.7 4.3 0.00 0.00 0.00 67 1012.5
20260506085631 37 346 0.9 4.3 0.00 0.00 0.00 67 1012.5
20260506085151 37 5 1.7 3.5 0.00 0.00 0.00 67 1012.4
20260506084613 37 5 0.9 3.5 0.00 0.00 0.00 66 1012.4
20260506084116 37 5 1.7 3.5 0.00 0.00 0.00 67 1012.4
20260506083619 37 24 1.7 3.5 0.00 0.00 0.00 67 1012.2
20260506083120 37 24 0.9 3.5 0.00 0.00 0.00 67 1012.3
20260506082626 37 25 1.7 3.5 0.00 0.00 0.00 66 1012.3
20260506082149 37 17 0.9 2.6 0.00 0.00 0.00 67 1012.3
20260506081631 37 18 1.7 3.5 0.00 0.00 0.00 67 1012.3
20260506081115 37 17 0.9 4.3 0.00 0.00 0.00 67 1012.4
20260506080619 37 18 1.7 4.3 0.00 0.00 0.00 67 1012.3
20260506080121 37 350 1.7 4.3 0.00 0.00 0.00 67 1012.2
20260506073116 39 17 1.7 3.5 0.00 0.00 0.00 62 1012.2
20260506072619 38 17 1.7 3.5 0.00 0.00 0.00 64 1012.1
20260506072121 39 17 1.7 3.5 0.00 0.00 0.00 64 1012.0
20260506071624 39 18 0.0 3.5 0.00 0.00 0.00 63 1011.8
20260506071129 39 18 2.6 3.5 0.00 0.00 0.00 64 1011.8
20260506070651 39 18 0.9 4.3 0.00 0.00 0.00 63 1011.8
20260506070135 39 15 0.9 5.2 0.00 0.00 0.00 64 1011.8
20260506062120 42 263 7.8 10.4 0.00 0.00 0.00 57 1011.6
20260506061623 42 323 5.2 9.6 0.00 0.00 0.00 55 1011.6
20260506061127 43 319 4.3 9.6 0.00 0.00 0.00 55 1011.6
20260506060630 43 306 6.1 10.4 0.00 0.00 0.00 56 1011.7
20260506060115 42 315 4.3 10.4 0.00 0.00 0.00 56 1011.7
20260506051145 39 329 1.7 4.3 0.00 0.00 0.00 70 1011.3
20260506050629 38 46 2.6 3.5 0.00 0.00 0.00 70 1011.2
20260506050152 38 338 0.9 5.2 0.00 0.00 0.00 70 1011.2
20260506045118 39 34 1.7 5.2 0.00 0.00 0.00 68 1011.1
20260506044640 40 292 1.7 4.3 0.00 0.00 0.00 64 1011.1
20260506044123 41 14 0.9 5.2 0.00 0.00 0.00 64 1011.0
20260506043627 42 349 3.5 5.2 0.00 0.00 0.00 58 1011.1
20260506043130 42 24 2.6 7.0 0.00 0.00 0.00 60 1011.1
20260506042614 41 20 2.6 4.3 0.00 0.00 0.00 61 1011.1
20260506042118 41 348 2.6 4.3 0.00 0.00 0.00 61 1011.1
20260506041620 40 10 1.7 4.3 0.00 0.00 0.00 65 1011.1
20260506041121 41 325 0.9 3.5 0.00 0.00 0.00 65 1011.1
20260506040623 42 338 0.9 3.5 0.00 0.00 0.00 63 1011.0
20260506040127 41 343 1.7 3.5 0.00 0.00 0.00 62 1011.0
20260506035624 40 343 1.7 3.5 0.00 0.00 0.00 68 1011.0
20260506035127 41 321 1.7 3.5 0.00 0.00 0.00 66 1011.0
20260506034630 41 336 0.9 3.5 0.00 0.00 0.00 66 1010.9
20260506034149 41 336 0.9 3.5 0.00 0.00 0.00 66 1010.9
20260506033631 42 308 0.0 3.5 0.00 0.00 0.00 65 1010.8
20260506033114 42 5 1.7 3.5 0.00 0.00 0.00 64 1010.9
20260506032618 43 9 0.9 2.6 0.00 0.00 0.00 62 1010.9
20260506032141 44 9 0.0 2.6 0.00 0.00 0.00 59 1010.9
20260506031623 45 9 0.9 2.6 0.00 0.00 0.00 53 1010.9
20260506031126 46 9 0.9 5.2 0.00 0.00 0.00 47 1010.9
20260506030629 46 360 3.5 5.2 0.00 0.00 0.00 47 1010.9
20260506030131 46 5 2.6 5.2 0.00 0.00 0.00 46 1010.8
20260506025613 46 32 1.7 5.2 0.00 0.00 0.00 47 1010.8
20260506025116 46 5 0.9 4.3 0.00 0.00 0.00 46 1010.8
20260506024619 46 349 0.0 4.3 0.00 0.00 0.00 47 1010.7
20260506024141 46 334 1.7 4.3 0.00 0.00 0.00 50 1010.7
20260506023625 46 350 2.6 5.2 0.00 0.00 0.00 48 1010.6
20260506023127 45 350 2.6 5.2 0.00 0.00 0.00 48 1010.6
20260506022629 45 301 0.0 4.3 0.00 0.00 0.00 49 1010.6
20260506022153 45 350 1.7 3.5 0.00 0.00 0.00 51 1010.5
20260506021615 45 349 2.6 3.5 0.00 0.00 0.00 49 1010.4
20260506021116 46 349 1.7 4.3 0.00 0.00 0.00 46 1010.4
20260506020622 46 23 1.7 4.3 0.00 0.00 0.00 50 1010.3
20260506020126 46 19 2.6 4.3 0.00 0.00 0.00 45 1010.2
20260506015631 47 334 1.7 6.1 0.00 0.00 0.00 45 1010.3
20260506015132 47 280 1.7 9.6 0.00 0.00 0.00 43 1010.2
20260506014614 47 308 4.3 9.6 0.00 0.00 0.00 43 1010.2
20260506014137 47 331 2.6 9.6 0.00 0.00 0.00 43 1010.1
20260506013620 47 350 5.2 9.6 0.00 0.00 0.00 42 1010.1
20260506013121 48 350 4.3 9.6 0.00 0.00 0.00 43 1010.0
20260506012625 48 314 4.3 7.8 0.00 0.00 0.00 43 1010.0
20260506012129 48 350 4.3 9.6 0.00 0.00 0.00 41 1010.0
20260506011653 48 292 2.6 13.0 0.00 0.00 0.00 41 1010.0
20260506011116 48 331 2.6 13.9 0.00 0.00 0.00 41 1009.9
20260506010618 49 272 7.0 13.0 0.00 0.00 0.00 41 1009.9
20260506010118 49 343 5.2 11.3 0.00 0.00 0.00 40 1009.8
20260506005621 49 336 5.2 11.3 0.00 0.00 0.00 40 1009.8
20260506005123 49 349 5.2 10.4 0.00 0.00 0.00 40 1009.7
20260506004648 49 325 4.3 9.6 0.00 0.00 0.00 39 1009.6
20260506004130 49 28 3.5 8.7 0.00 0.00 0.00 39 1009.6
20260506003615 49 10 4.3 9.6 0.00 0.00 0.00 39 1009.6
20260506003119 49 235 5.2 12.2 0.00 0.00 0.00 38 1009.6
20260506002623 49 325 7.8 13.0 0.00 0.00 0.00 39 1009.5
20260506002126 49 16 5.2 13.0 0.00 0.00 0.00 40 1009.5
20260506001631 49 9 7.8 13.9 0.00 0.00 0.00 38 1009.5
20260506001114 49 289 7.0 13.9 0.00 0.00 0.00 39 1009.5
20260506000618 49 348 6.1 8.7 0.00 0.00 0.00 39 1009.4
20260506000121 49 274 6.1 8.7 0.00 0.00 0.00 38 1009.3
20260505235626 50 336 3.5 11.3 0.00 0.00 0.00 39 1009.4
20260505235130 50 296 4.3 11.3 0.00 0.00 0.00 37 1009.4
20260505234613 50 300 1.7 13.9 0.00 0.00 0.00 37 1009.5
20260505234114 50 283 4.3 13.9 0.00 0.00 0.00 36 1009.4
20260505233616 50 31 3.5 12.2 0.00 0.00 0.00 36 1009.3
20260505233139 50 360 3.5 13.0 0.00 0.00 0.00 38 1009.3
20260505232622 50 338 5.2 13.0 0.00 0.00 0.00 37 1009.4
20260505232123 50 248 7.8 13.9 0.00 0.00 0.00 36 1009.5
20260505231625 50 334 3.5 13.9 0.00 0.00 0.00 36 1009.4
20260505231127 50 319 6.1 10.4 0.00 0.00 0.00 36 1009.4
20260505230629 50 288 4.3 10.4 0.00 0.00 0.00 36 1009.4
20260505230130 50 304 3.5 10.4 0.00 0.00 0.00 35 1009.3
20260505225612 50 261 2.6 8.7 0.00 0.00 0.00 38 1009.4
20260505225136 50 253 5.2 8.7 0.00 0.00 0.00 40 1009.5
20260505224616 50 117 5.2 13.0 0.00 0.00 0.00 36 1009.5
20260505224138 50 350 3.5 14.8 0.00 0.00 0.00 37 1009.5
20260505223622 50 327 7.8 14.8 0.00 0.00 0.00 36 1009.5
20260505223122 50 15 7.0 13.0 0.00 0.00 0.00 35 1009.5
20260505222625 50 337 7.8 13.0 0.00 0.00 0.00 35 1009.5
20260505222129 50 345 7.0 13.9 0.00 0.00 0.00 35 1009.4
20260505221612 50 285 3.5 13.9 0.00 0.00 0.00 38 1009.3
20260505221114 50 348 6.1 12.2 0.00 0.00 0.00 35 1009.3
20260505220637 50 264 6.1 13.0 0.00 0.00 0.00 35 1009.3
20260505220118 50 315 5.2 13.9 0.00 0.00 0.00 35 1009.4
20260505215621 50 17 5.2 13.9 0.00 0.00 0.00 37 1009.3
20260505215122 50 32 6.1 11.3 0.00 0.00 0.00 36 1009.5
20260505214625 50 286 6.1 15.6 0.00 0.00 0.00 36 1009.4
20260505214127 50 311 8.7 15.6 0.00 0.00 0.00 35 1009.5
20260505213630 50 338 9.6 15.6 0.00 0.00 0.00 36 1009.4
20260505213113 50 269 10.4 15.6 0.00 0.00 0.00 37 1009.5
20260505212614 51 221 7.0 15.6 0.00 0.00 0.00 34 1009.4
20260505212117 52 263 6.1 13.0 0.00 0.00 0.00 39 1009.3
20260505211617 51 292 5.2 15.6 0.00 0.00 0.00 36 1009.4
20260505211140 51 340 7.8 16.5 0.00 0.00 0.00 37 1009.5
20260505210620 51 310 8.7 14.8 0.00 0.00 0.00 36 1009.5
20260505210125 51 24 8.7 14.8 0.00 0.00 0.00 37 1009.5
20260505205625 51 303 6.1 14.8 0.00 0.00 0.00 36 1009.4
20260505205130 51 250 6.1 19.1 0.00 0.00 0.00 37 1009.5
20260505204632 51 315 8.7 19.1 0.00 0.00 0.00 38 1009.4
20260505204113 51 308 5.2 20.0 0.00 0.00 0.00 36 1009.5
20260505203615 51 33 8.7 20.0 0.00 0.00 0.00 35 1009.6
20260505203117 52 348 9.6 17.4 0.00 0.00 0.00 36 1009.6
20260505202641 51 270 7.0 16.5 0.00 0.00 0.00 36 1009.6
20260505202122 51 242 6.1 26.1 0.00 0.00 0.00 41 1009.5
20260505201645 52 309 11.3 26.1 0.00 0.00 0.00 36 1009.6
20260505201146 52 290 8.7 19.1 0.00 0.00 0.00 37 1009.5
20260505200627 51 283 7.8 17.4 0.00 0.00 0.00 34 1009.6
20260505200113 51 315 4.3 13.0 0.00 0.00 0.00 38 1009.5
20260505195613 51 289 6.1 17.4 0.00 0.00 0.00 36 1009.6
20260505195118 52 339 8.7 17.4 0.00 0.00 0.00 37 1009.6
20260505194620 51 334 6.1 14.8 0.00 0.00 0.00 35 1009.6
20260505194126 51 293 5.2 18.2 0.00 0.00 0.00 36 1009.6
20260505193629 51 335 7.0 18.2 0.00 0.00 0.00 38 1009.6
20260505193113 51 308 8.7 17.4 0.00 0.00 0.00 34 1009.7
20260505192614 52 341 6.1 16.5 0.00 0.00 0.00 35 1009.7
20260505192118 53 250 10.4 16.5 0.00 0.00 0.00 41 1009.6
20260505191620 52 327 6.1 13.9 0.00 0.00 0.00 43 1009.6
20260505191143 51 277 4.3 14.8 0.00 0.00 0.00 37 1009.7
20260505190648 52 302 4.3 14.8 0.00 0.00 0.00 40 1009.6
20260505190131 51 266 5.2 20.0 0.00 0.00 0.00 36 1009.6
20260505185634 50 237 4.3 20.9 0.00 0.00 0.00 38 1009.7
20260505185135 50 238 7.8 13.9 0.00 0.00 0.00 35 1009.8
20260505184617 50 360 7.0 13.9 0.00 0.00 0.00 42 1009.8
20260505184119 50 321 6.1 13.9 0.00 0.00 0.00 36 1009.7
20260505183621 50 346 7.8 20.9 0.00 0.00 0.00 39 1009.7
20260505183123 50 257 7.0 21.7 0.00 0.00 0.00 39 1009.7
20260505182625 51 292 8.7 18.2 0.00 0.00 0.00 45 1009.6
20260505182129 50 340 8.7 18.2 0.00 0.00 0.00 36 1009.5
20260505181631 50 296 10.4 18.2 0.00 0.00 0.00 39 1009.4
20260505181134 49 302 5.2 17.4 0.00 0.00 0.00 36 1009.5
20260505180613 50 275 3.5 13.0 0.00 0.00 0.00 42 1009.5
20260505180153 49 323 7.0 15.6 0.00 0.00 0.00 41 1009.4
20260505175616 50 11 7.8 15.6 0.00 0.00 0.00 34 1009.4
20260505175117 50 271 5.2 19.1 0.00 0.00 0.00 41 1009.6
20260505174621 49 276 9.6 15.6 0.00 0.00 0.00 39 1009.5
20260505174125 49 329 8.7 15.6 0.00 0.00 0.00 39 1009.6
20260505173613 49 229 8.7 17.4 0.00 0.00 0.00 45 1009.6
20260505173151 49 321 11.3 17.4 0.00 0.00 0.00 37 1009.6
20260505172631 49 337 7.0 17.4 0.00 0.00 0.00 36 1009.5
20260505172114 49 350 8.7 17.4 0.00 0.00 0.00 36 1009.6
20260505171618 49 61 2.6 17.4 0.00 0.00 0.00 35 1009.5
20260505171120 49 341 6.1 16.5 0.00 0.00 0.00 35 1009.7
20260505170622 49 218 6.1 16.5 0.00 0.00 0.00 35 1009.7
20260505170146 49 333 7.0 17.4 0.00 0.00 0.00 38 1009.6
20260505165629 49 254 7.0 22.6 0.00 0.00 0.00 34 1009.7
20260505165112 49 360 11.3 22.6 0.00 0.00 0.00 34 1009.8
20260505164616 48 23 9.6 18.2 0.00 0.00 0.00 39 1009.7
20260505164121 48 277 5.2 20.0 0.00 0.00 0.00 36 1009.8
20260505163623 48 350 11.3 20.0 0.00 0.00 0.00 34 1009.7
20260505163127 48 253 7.0 18.2 0.00 0.00 0.00 38 1009.8
20260505162614 48 181 7.0 15.6 0.00 0.00 0.00 36 1009.7
20260505162127 48 169 3.5 15.6 0.00 0.00 0.00 38 1009.8
20260505161630 49 101 8.7 15.6 0.00 0.00 0.00 35 1009.6